ROMMA est une association bénévole à but non lucratif. Votre soutien est indispensable : ADHERER à ROMMA ou FAIRE un DON

Lyon - (69, Rhône)

Plaine lyonnaise (169 m)   Longitude: 04° 49' 55" E   Latitude: 45° 43' 50" N Station partenaire n°124
 

Détail journalier du     <<     >>

Température Precipitation Humidité Pression Vent Dir Rafale Dir. rafale Ensol.
Heure (°C) (mm) (%) (hPa) (km/h) (km/h) (min)
01:00 15.208210176O16O0
02:00 14.708410173NO10NO0
03:00 14.708510173N14N0
04:00 15.108310174N13N0
05:00 15.108310163N10N0
06:00 14.3086101603N0
07:00 14.208810171---6N0
08:00 13.808910161---6N0
09:00 14.508710172N6N0
10:00 16.008010172N6N10
11:00 16.707810173N10N0
12:00 18.806810163N8S50
13:00 19.505910164N13NO10
14:00 18.706210156N18N0
15:00 18.706210155N16N0
16:00 18.106910143N10N0
17:00 16.618010142N6N0
18:00 15.908610143N8N0
19:00 15.50.58910142N6N0
20:00 15.319110143N16NO0
21:00 14.41.69010145N23N0
22:00 14.109110153N14N0
23:00 13.908510167N26N0
minuit 13.80.28110168N27N0

Graphique du 06-10-2019

 

Serveur OMMA